Simultaneous Nadir Overpasses (SNOs) Predictions

Prediction of SNOs between GOES-15 and METOP-B Satellite Orbit:

Table of predicted SNOs for the next 14.0 days since TLE Epoch: 2/10/2024
Index Date Time (GOES-15) GOES-15 Lat,Lon METOP-B Lat,Lon Distance(km) Time Diff (sec)
1 02/11/2024 05:28:13 0.01, 61.51 0.57, 59.10 275.14 80
2 02/12/2024 05:10:16 0.01, 61.50 -0.56, 64.08 294.48 80
3 02/13/2024 17:29:18 -0.02, 61.47 -0.49, 59.47 228.43 80
4 02/14/2024 17:06:01 -0.02, 61.47 0.66, 64.45 340.21 80
5 02/16/2024 05:24:54 0.01, 61.46 0.38, 59.88 181.58 80
6 02/17/2024 05:06:57 0.01, 61.45 -0.76, 64.85 387.38 80
7 02/18/2024 17:25:59 -0.00, 61.43 -0.27, 60.24 135.78 80
8 02/19/2024 17:02:40 -0.00, 61.43 0.83, 65.23 432.28 80
9 02/21/2024 05:21:34 0.00, 61.44 0.20, 60.65 90.80 80
10 02/22/2024 05:03:36 0.00, 61.44 -0.96, 65.63 478.03 80
11 02/23/2024 17:22:38 -0.00, 61.41 -0.11, 61.02 44.46 80
